Location: *
(46.1200°N, 11.2700°E)
Time: 23:37:53
(UTC+00:00)

Gbstr 26 Del rocket - Pass Details

Date: 02 March 2021
Orbit: 492 x 1264 km, 51.8° (Epoch: 18 April)

Event Time Altitude Azimuth Distance (km) Brightness Sun altitude
Rises 19:59:40 0° 290° (WNW) 2,963 7.7 -30.8°
Reaches altitude 10° 20:01:51 10° 296° (WNW) 2,150 6.7 -31.1°
Enters shadow 20:05:36 44° 334° (NNW) 1,068 4.4 -31.7°
